Weather History for Jaffrey, NH

Change the Weather History Date:

Saturday, March 2, 2013

  Actual Average Record
Temperature  
Mean Temperature 32 °F -  
Max Temperature 35 °F 34 °F 57 °F (2004)
Min Temperature 28 °F 17 °F -2 °F (2001)
Degree Days  
Heating Degree Days 34    
Moisture  
Dew Point 22 °F    
Average Humidity 70    
Maximum Humidity 75    
Minimum Humidity 61    
Precipitation  
Precipitation 0.00 in - - ()
Sea Level Pressure  
Sea Level Pressure 29.67 in    
Wind  
Wind Speed 5 mph (NNW)    
Max Wind Speed 8 mph    
Max Gust Speed -    
Visibility 10 miles    
Events      
Averages and records for this station are not official NWS values.
T = Trace of Precipitation, MM = Missing Value Source: NWS Daily Summary

Daily Weather History Graph

Daily Weather History Graph

Search for Another Location

Airport:

Trip Planner

Search our weather history database for the weather conditions in past years. The results will help you decide how hot, cold, wet, or windy it might be!

Date:

Astronomy

Mar. 02, 2013 Rise Set
Actual Time 6:21 AM EST 5:39 PM EST
Civil Twilight 5:53 AM EST 6:07 PM EST
Nautical Twilight 5:20 AM EST 6:40 PM EST
Astronomical Twilight 4:47 AM EST 7:12 PM EST
Moon 11:24 PM EST (3/2) 8:39 AM EST (3/2)
Length of Visible Light 12h 13m
Length of Day
11h 17m
Waning Gibbous, 74% of the Moon is Illuminated
Mar 2
Waning Gibbous
Mar 4
Last Quarter
Mar 11
New
Mar 19
First Quarter
Mar 27
Full

Hourly Weather History & Observations

Time (EST) Temp. Windchill Dew Point Humidity Pressure Visibility Wind Dir Wind Speed Gust Speed Precip Events Conditions
12:52 AM 30.0 °F 26.5 °F 23.0 °F 75% 29.70 in 10.0 mi Variable 3.5 mph - N/A   Overcast
1:52 AM 30.0 °F 25.2 °F 21.9 °F 72% 29.69 in 10.0 mi Variable 4.6 mph - N/A   Overcast
1:59 AM 30.2 °F 25.4 °F 23.0 °F 75% 29.64 in 10.0 mi NNW 4.6 mph - N/A   Overcast
2:52 AM 30.0 °F 26.5 °F 21.9 °F 72% 29.69 in 10.0 mi Variable 3.5 mph - N/A   Overcast
3:52 AM 30.0 °F 23.2 °F 21.9 °F 72% 29.68 in 10.0 mi NNW 6.9 mph - N/A   Overcast
4:52 AM 30.0 °F 22.4 °F 21.9 °F 72% 29.68 in 10.0 mi NNW 8.1 mph - N/A   Overcast
5:52 AM 30.0 °F 26.5 °F 21.9 °F 72% 29.68 in 10.0 mi Variable 3.5 mph - N/A   Overcast
6:52 AM 30.0 °F 23.2 °F 21.9 °F 72% 29.69 in 10.0 mi Variable 6.9 mph - N/A   Overcast
7:52 AM 30.9 °F 23.5 °F 21.9 °F 69% 29.69 in 10.0 mi NNW 8.1 mph - N/A   Mostly Cloudy
8:52 AM 32.0 °F 24.8 °F 23.0 °F 69% 29.69 in 10.0 mi NNW 8.1 mph - N/A   Overcast
9:52 AM 33.1 °F 27.7 °F 23.0 °F 66% 29.69 in 10.0 mi NNW 5.8 mph - N/A   Overcast
10:52 AM 33.1 °F 26.9 °F 24.1 °F 70% 29.69 in 10.0 mi North 6.9 mph - N/A   Overcast
11:52 AM 34.0 °F 29.8 °F 25.0 °F 70% 29.68 in 10.0 mi Variable 4.6 mph - N/A   Overcast
12:52 PM 34.0 °F 28.0 °F 25.0 °F 70% 29.66 in 10.0 mi Variable 6.9 mph - N/A   Overcast
1:52 PM 35.1 °F 32.2 °F 24.1 °F 64% 29.65 in 10.0 mi Variable 3.5 mph - N/A   Overcast
2:52 PM 35.1 °F 31.0 °F 24.1 °F 64% 29.65 in 10.0 mi NW 4.6 mph - N/A   Overcast
3:52 PM 35.1 °F 29.3 °F 24.1 °F 64% 29.65 in 10.0 mi NW 6.9 mph - N/A   Overcast
4:02 PM 33.8 °F 27.7 °F 23.0 °F 65% 29.61 in 10.0 mi NW 6.9 mph - N/A   Overcast
4:52 PM 34.0 °F 28.0 °F 23.0 °F 64% 29.66 in 10.0 mi NW 6.9 mph - N/A   Overcast
5:52 PM 33.1 °F 26.1 °F 21.0 °F 61% 29.67 in 10.0 mi NW 8.1 mph - N/A   Overcast
6:52 PM 32.0 °F 26.4 °F 21.9 °F 66% 29.68 in 10.0 mi Variable 5.8 mph - N/A   Overcast
7:18 PM 30.2 °F 26.7 °F 21.2 °F 69% 29.63 in 10.0 mi Variable 3.5 mph - N/A   Overcast
8:52 PM 30.0 °F 25.2 °F 23.0 °F 75% 29.70 in 10.0 mi Variable 4.6 mph - N/A   Overcast
9:43 PM 28.4 °F 23.3 °F 21.2 °F 74% 29.64 in 10.0 mi Variable 4.6 mph - N/A   Overcast
9:52 PM 28.9 °F 22.8 °F 21.0 °F 72% 29.69 in 10.0 mi NNW 5.8 mph - N/A   Overcast
10:09 PM 28.4 °F 21.2 °F 21.2 °F 74% 29.64 in 10.0 mi Variable 6.9 mph - N/A   Overcast
10:25 PM 28.4 °F 22.2 °F 21.2 °F 74% 29.63 in 10.0 mi Variable 5.8 mph - N/A   Overcast
10:52 PM 28.9 °F 25.2 °F 19.9 °F 69% 29.68 in 10.0 mi Variable 3.5 mph - N/A   Overcast